• In Germany
  • List of Countries
  • For 7 days
  • Water Temperature
  • Satellite Maps
  • Weather Map
  • Weather Widgets
  • user-avatar
    Login

    Hourly Weather Kormovoe

    Today, 25 September, Tuesday

    Time Temperature Precipitation Wind Pressure Humidity
    00:00 +18°C° 0 mm 4 mps 752 mmHg 52%
    01:00 +18°C° 0 mm 4 mps 752 mmHg 55%
    02:00 +18°C° 0 mm 4 mps 751 mmHg 58%
    03:00 +17°C° 0 mm 3 mps 751 mmHg 65%
    04:00 +17°C° 0 mm 4 mps 751 mmHg 65%
    05:00 +17°C° 0 mm 4 mps 750 mmHg 66%
    06:00 +17°C° 0 mm 4 mps 750 mmHg 67%
    07:00 +19°C° 0 mm 5 mps 750 mmHg 62%
    08:00 +21°C° 0 mm 5 mps 750 mmHg 57%
    09:00 +23°C° 0 mm 6 mps 750 mmHg 51%
    10:00 +26°C° 0 mm 6 mps 750 mmHg 47%
    11:00 +28°C° 0 mm 6 mps 750 mmHg 43%
    12:00 +30°C° 0 mm 5 mps 749 mmHg 39%
    13:00 +30°C° 0 mm 5 mps 749 mmHg 37%
    14:00 +30°C° 0 mm 5 mps 750 mmHg 35%
    15:00 +30°C° 0 mm 4 mps 750 mmHg 38%
    16:00 +27°C° 0.1 mm 5 mps 750 mmHg 47%
    17:00 +24°C° 0.1 mm 6 mps 751 mmHg 55%
    18:00 +21°C° 0.1 mm 7 mps 751 mmHg 64%
    19:00 +20°C° 0.6 mm 7 mps 752 mmHg 66%
    20:00 +17°C° 0.6 mm 6 mps 753 mmHg 67%
    21:00 +16°C° 0.6 mm 5 mps 754 mmHg 69%
    22:00 +15°C° 0.8 mm 5 mps 754 mmHg 69%
    23:00 +15°C° 0.8 mm 5 mps 755 mmHg 68%

    Tomorrow, 26 September, Wednesday

    Time Temperature Precipitation Wind Pressure Humidity
    00:00 +14°C° 0.8 mm 4 mps 755 mmHg 68%
    01:00 +14°C° 0.3 mm 4 mps 755 mmHg 68%
    02:00 +14°C° 0.3 mm 4 mps 756 mmHg 68%
    03:00 +13°C° 0.3 mm 4 mps 756 mmHg 68%
    04:00 +13°C° 0.1 mm 4 mps 756 mmHg 69%
    05:00 +13°C° 0.1 mm 4 mps 757 mmHg 70%
    06:00 +13°C° 0.1 mm 4 mps 757 mmHg 71%
    07:00 +12°C° 0.3 mm 3 mps 757 mmHg 73%
    08:00 +12°C° 0.3 mm 3 mps 758 mmHg 74%
    09:00 +12°C° 0.3 mm 3 mps 758 mmHg 76%
    10:00 +13°C° 0.3 mm 3 mps 758 mmHg 71%
    11:00 +13°C° 0.3 mm 3 mps 759 mmHg 67%
    12:00 +15°C° 0.3 mm 2 mps 759 mmHg 63%
    13:00 +16°C° 0 mm 2 mps 759 mmHg 58%
    14:00 +17°C° 0 mm 2 mps 759 mmHg 53%
    15:00 +18°C° 0 mm 2 mps 759 mmHg 48%
    16:00 +17°C° 0 mm 2 mps 759 mmHg 50%
    17:00 +17°C° 0 mm 2 mps 759 mmHg 52%
    18:00 +16°C° 0 mm 2 mps 759 mmHg 54%
    19:00 +16°C° 0 mm 2 mps 760 mmHg 57%
    20:00 +15°C° 0 mm 2 mps 760 mmHg 61%
    21:00 +14°C° 0 mm 2 mps 760 mmHg 64%
    22:00 +14°C° 0 mm 2 mps 761 mmHg 63%
    23:00 +14°C° 0 mm 2 mps 761 mmHg 63%

    Day after tomorrow, 27 September, Thursday

    Time Temperature Precipitation Wind Pressure Humidity
    00:00 +13°C° 0 mm 2 mps 761 mmHg 62%
    01:00 +13°C° 0 mm 2 mps 761 mmHg 63%
    02:00 +12°C° 0 mm 2 mps 761 mmHg 63%
    03:00 +12°C° 0 mm 2 mps 761 mmHg 64%
    04:00 +10°C° 0 mm 2 mps 761 mmHg 66%
    05:00 +10°C° 0 mm 2 mps 761 mmHg 67%
    06:00 +11°C° 0 mm 1 mps 761 mmHg 69%
    07:00 +12°C° 0 mm 1 mps 762 mmHg 63%
    08:00 +14°C° 0 mm 1 mps 762 mmHg 57%
    09:00 +15°C° 0 mm 1 mps 762 mmHg 51%
    10:00 +16°C° 0 mm 1 mps 761 mmHg 46%
    11:00 +18°C° 0 mm 2 mps 761 mmHg 40%
    12:00 +19°C° 0 mm 2 mps 761 mmHg 35%
    13:00 +19°C° 0 mm 3 mps 760 mmHg 34%
    14:00 +20°C° 0 mm 4 mps 760 mmHg 33%
    15:00 +20°C° 0 mm 4 mps 759 mmHg 32%
    16:00 +19°C° 0 mm 4 mps 759 mmHg 34%
    17:00 +18°C° 0 mm 3 mps 759 mmHg 36%
    18:00 +17°C° 0 mm 2 mps 759 mmHg 38%
    19:00 +17°C° 0 mm 2 mps 759 mmHg 39%
    20:00 +16°C° 0 mm 2 mps 759 mmHg 39%
    21:00 +14°C° 0 mm 3 mps 760 mmHg 39%
    22:00 +13°C° 0 mm 3 mps 760 mmHg 39%
    23:00 +14°C° 0 mm 2 mps 760 mmHg 39%

    28 September, Friday

    Time Temperature Precipitation Wind Pressure Humidity
    00:00 +13°C° 0 mm 2 mps 760 mmHg 39%
    01:00 +13°C° 0 mm 2 mps 760 mmHg 41%
    02:00 +12°C° 0 mm 2 mps 759 mmHg 42%
    03:00 +12°C° 0 mm 2 mps 759 mmHg 44%
    04:00 +10°C° 0 mm 2 mps 759 mmHg 46%
    05:00 +10°C° 0 mm 2 mps 759 mmHg 48%
    06:00 +10°C° 0 mm 2 mps 759 mmHg 50%
    07:00 +12°C° 0 mm 2 mps 759 mmHg 46%
    08:00 +13°C° 0 mm 3 mps 760 mmHg 42%
    09:00 +14°C° 0 mm 3 mps 760 mmHg 38%
    10:00 +17°C° 0 mm 3 mps 759 mmHg 35%
    11:00 +18°C° 0 mm 3 mps 759 mmHg 31%
    12:00 +19°C° 0 mm 3 mps 759 mmHg 27%
    13:00 +20°C° 0 mm 3 mps 758 mmHg 27%
    14:00 +21°C° 0 mm 3 mps 758 mmHg 27%
    15:00 +22°C° 0 mm 3 mps 757 mmHg 26%
    16:00 +20°C° 0 mm 2 mps 757 mmHg 30%
    17:00 +19°C° 0 mm 2 mps 757 mmHg 33%
    18:00 +19°C° 0 mm 1 mps 756 mmHg 36%
    19:00 +19°C° 0 mm 1 mps 756 mmHg 38%
    20:00 +18°C° 0 mm 2 mps 756 mmHg 40%
    21:00 +17°C° 0 mm 2 mps 756 mmHg 41%
    22:00 +17°C° 0 mm 2 mps 756 mmHg 45%
    23:00 +17°C° 0 mm 2 mps 756 mmHg 48%

    29 September, Saturday

    Time Temperature Precipitation Wind Pressure Humidity
    00:00 +16°C° 0 mm 2 mps 756 mmHg 51%
    01:00 +16°C° 0 mm 2 mps 755 mmHg 56%
    02:00 +16°C° 0 mm 2 mps 755 mmHg 62%
    03:00 +15°C° 0 mm 2 mps 755 mmHg 68%
    04:00 +15°C° 0 mm 2 mps 755 mmHg 72%
    05:00 +15°C° 0 mm 2 mps 755 mmHg 77%
    06:00 +15°C° 0 mm 2 mps 755 mmHg 81%
    07:00 +16°C° 0 mm 3 mps 755 mmHg 76%
    08:00 +18°C° 0 mm 3 mps 755 mmHg 70%
    09:00 +20°C° 0 mm 4 mps 755 mmHg 65%
    10:00 +21°C° 0 mm 4 mps 755 mmHg 59%
    11:00 +23°C° 0 mm 4 mps 755 mmHg 54%
    12:00 +25°C° 0 mm 4 mps 755 mmHg 49%
    13:00 +26°C° 0 mm 4 mps 754 mmHg 47%
    14:00 +26°C° 0 mm 4 mps 754 mmHg 45%
    15:00 +27°C° 0 mm 4 mps 754 mmHg 43%
    16:00 +26°C° 0 mm 3 mps 753 mmHg 45%
    17:00 +25°C° 0 mm 3 mps 753 mmHg 48%
    18:00 +24°C° 0 mm 2 mps 753 mmHg 50%
    19:00 +24°C° 0 mm 3 mps 754 mmHg 51%
    20:00 +22°C° 0 mm 3 mps 754 mmHg 53%
    21:00 +21°C° 0 mm 3 mps 754 mmHg 54%
    22:00 +21°C° 0 mm 3 mps 754 mmHg 55%
    23:00 +21°C° 0 mm 3 mps 754 mmHg 55%

    30 September, Sunday

    Time Temperature Precipitation Wind Pressure Humidity
    00:00 +20°C° 0 mm 3 mps 754 mmHg 56%
    01:00 +20°C° 0 mm 3 mps 754 mmHg 56%
    02:00 +19°C° 0 mm 3 mps 754 mmHg 57%
    03:00 +19°C° 0 mm 2 mps 754 mmHg 57%
    04:00 +19°C° 0 mm 2 mps 754 mmHg 57%
    05:00 +18°C° 0 mm 2 mps 754 mmHg 56%
    06:00 +18°C° 0 mm 2 mps 754 mmHg 56%
    07:00 +19°C° 0 mm 3 mps 755 mmHg 51%
    08:00 +21°C° 0 mm 3 mps 755 mmHg 45%
    09:00 +22°C° 0 mm 3 mps 755 mmHg 40%
    10:00 +23°C° 0 mm 4 mps 755 mmHg 37%
    11:00 +26°C° 0 mm 4 mps 755 mmHg 33%
    12:00 +27°C° 0 mm 4 mps 755 mmHg 29%
    13:00 +27°C° 0 mm 4 mps 755 mmHg 29%
    14:00 +27°C° 0 mm 5 mps 755 mmHg 28%
    15:00 +28°C° 0 mm 5 mps 755 mmHg 28%
    16:00 +26°C° 0 mm 4 mps 755 mmHg 30%
    17:00 +25°C° 0 mm 4 mps 755 mmHg 32%
    18:00 +23°C° 0 mm 4 mps 755 mmHg 34%
    19:00 +22°C° 0 mm 4 mps 755 mmHg 35%
    20:00 +22°C° 0 mm 4 mps 755 mmHg 36%
    21:00 +21°C° 0 mm 4 mps 756 mmHg 38%
    22:00 +21°C° 0 mm 4 mps 756 mmHg 40%
    23:00 +20°C° 0 mm 5 mps 755 mmHg 42%
    Show more